Location: Bas-Clignon
(44.2000°N, 6.6333°E)
Time: 13:46:34
(UTC+00:00)

Cosmos 2333 Rocket - Pass Details

Date: 03 February 2023
Orbit: 838 x 864 km, 70.8° (Epoch: 20 March)

Event Time Altitude Azimuth Distance (km) Brightness Sun altitude
Rises 18:10:18 0° 189° (S) 3,375 5.6 -15.4°
Reaches altitude 10° 18:12:46 10° 184° (S) 2,447 4.8 -15.9°
Maximum altitude 18:18:12 53° 109° (ESE) 1,027 2.3 -16.8°
Enters shadow 18:22:24 17° 38° (NE) 2,006 3.8 -17.6°
